Location: Unspecified
(0.0000°N, 0.0000°E)
Time: 10:26:11
(UTC+00:00)

Amateur Radio Satellites - All Passes

Search period start: 01 November 2014 09:56
Search period end: 02 November 2014 09:56
Location: Unspecified, 0.0000°N, 0.0000°E

Satellite Date Start Highest point End Downlink Frequencies (MHz)
Time Altitude Azimuth
SO-50 01 Nov 09:59:05 10:00:30 11° 293° (WNW) 10:01:55 436.795 FM
Oscar 11 01 Nov 10:05:56 10:09:20 23° 282° (WNW) 10:12:44 145.825 FM, Beacon 2401.500 USB
FUNcube-1 01 Nov 10:23:53 10:27:42 37° 281° (WNW) 10:31:34 145.950 - 145.970 MHz USB
UOSAT-12 01 Nov 10:35:46 10:40:15 80° 292° (WNW) 10:44:49 437.025 FM, 437.400 FM
PANSAT 01 Nov 10:47:54 10:51:43 73° 210° (SSW) 10:55:32 not established
Sapphire 01 Nov 11:33:28 11:38:11 31° 71° (ENE) 11:42:53 437.095 MHz 1200 baud AX-25 AFSK
Oscar 10/S400 01 Nov 11:40:03 12:10:29 58° 332° (NNW) 12:29:43 145.825 - 145.975 CW/USB, Beacon 145.810 USB
PCSat 01 Nov 11:54:25 11:59:44 61° 71° (ENE) 12:05:02 145.825 MHz
PANSAT 01 Nov 12:30:35 12:31:54 11° 207° (SSW) 12:33:14 not established
Oscar 19 01 Nov 12:37:04 12:41:35 31° 78° (ENE) 12:46:03 437.125 CW, 437.150 USB
JAS-1B 01 Nov 13:03:46 13:10:17 59° 78° (ENE) 13:15:59 435.800 - 435.900 CW/SSB
AO-27 01 Nov 13:15:33 13:19:58 28° 77° (ENE) 13:24:23 436.795 MHz FM
Sapphire 01 Nov 13:17:51 13:21:20 17° 250° (WSW) 13:24:49 437.095 MHz 1200 baud AX-25 AFSK
Oscar 16 01 Nov 13:23:35 13:28:44 68° 257° (WSW) 13:33:51 437.025 USB, Beacon 2401.1428
Gurwin Techsat 1B 01 Nov 13:36:11 13:40:13 22° 77° (ENE) 13:44:14 435.225 FM
TMSAT-1 01 Nov 13:42:35 13:46:02 18° 77° (ENE) 13:49:28 436.925 FM
AO-Echo 01 Nov 13:51:55 13:56:42 71° 258° (WSW) 14:01:36 ?
Uribyol 2 01 Nov 13:57:59 14:03:12 80° 257° (WSW) 14:08:25 436.500 FM
ITAMSAT 1 01 Nov 14:06:13 14:11:24 69° 257° (WSW) 14:16:34 435.822 SSB
Oscar 19 01 Nov 14:17:33 14:20:38 16° 257° (WSW) 14:23:42 437.125 CW, 437.150 USB
Saudisat 1A 01 Nov 14:45:03 14:48:46 27° 68° (ENE) 14:52:28 436.775 MHz
AO-7 01 Nov 14:54:35 15:01:09 27° 74° (ENE) 15:07:41 29.400 - 29.500 MHz
AO-27 01 Nov 14:55:48 14:59:12 18° 257° (WSW) 15:02:36 436.795 MHz FM
Gurwin Techsat 1B 01 Nov 15:15:45 15:19:54 24° 257° (WSW) 15:24:04 435.225 FM
TMSAT-1 01 Nov 15:21:07 15:25:40 29° 257° (WSW) 15:30:12 436.925 FM
Uosat F 01 Nov 15:44:14 15:48:59 44° 77° (ENE) 15:53:43 435.120 FM
JAS-2 01 Nov 16:13:33 16:17:30 20° 75° (ENE) 16:21:43 435.800 - 435.900 CW/SSB, 435.910 FM
Saudisat 1A 01 Nov 16:25:56 16:28:04 13° 247° (WSW) 16:30:12 436.775 MHz
OPAL 01 Nov 16:38:29 16:43:14 47° 104° (ESE) 16:48:03 ?
AO-7 01 Nov 16:45:58 16:53:34 41° 254° (WSW) 17:01:10 29.400 - 29.500 MHz
Uosat F 01 Nov 17:27:12 17:27:28 10° 257° (WSW) 17:27:44 435.120 FM
ISS 01 Nov 17:29:32 17:31:04 13° 54° (NE) 17:32:37 145.800 FM
Hamsat 01 Nov 17:53:20 17:57:15 36° 258° (WSW) 18:01:06 145.90 MHz
JAS-2 01 Nov 17:57:29 18:02:15 30° 259° (W) 18:07:26 435.800 - 435.900 CW/SSB, 435.910 FM
SO-67 01 Nov 18:01:15 18:03:11 14° 79° (E) 18:05:06 435.3500 MHz FM
AO-40 01 Nov 18:08:58 21:25:58 34° 85° (E) 22:49:40 Beacon 2401.320
RS-15 01 Nov 18:34:23 18:45:43 65° 111° (ESE) 18:56:32 29.354 - 29.394 USB, Beacon 29.352 USB
STRAND 1 01 Nov 18:36:24 18:41:30 81° 283° (WNW) 18:46:37 ?
ISS 01 Nov 19:05:03 19:07:33 20° 234° (SW) 19:10:05 145.800 FM
KITSAT 1 01 Nov 19:24:38 19:30:12 20° 69° (ENE) 19:35:44 435.175 FM
SO-67 01 Nov 19:34:24 19:35:52 12° 259° (W) 19:37:20 435.3500 MHz FM
HO-68 01 Nov 19:54:53 20:01:09 33° 75° (ENE) 20:07:24 435.675 MHz FM
MaSat-1 01 Nov 20:16:44 20:20:49 42° 286° (WNW) 20:24:42 437.345 MHz
SO-50 01 Nov 20:28:43 20:33:33 63° 68° (ENE) 20:38:20 436.795 FM
Oscar 11 01 Nov 20:39:32 20:42:39 19° 78° (ENE) 20:45:45 145.825 FM, Beacon 2401.500 USB
RS-15 01 Nov 20:50:12 20:57:37 20° 292° (WNW) 21:04:56 29.354 - 29.394 USB, Beacon 29.352 USB
PANSAT 01 Nov 20:56:15 20:58:50 17° 152° (SSE) 21:01:24 not established
FUNcube-1 01 Nov 21:00:10 21:02:21 13° 78° (ENE) 21:04:32 145.950 - 145.970 MHz USB
KITSAT 1 01 Nov 21:17:35 21:25:16 50° 250° (WSW) 21:33:00 435.175 FM
UKube-1 01 Nov 21:40:27 21:44:39 49° 258° (WSW) 21:48:51 145.840 MHz, 145.915 MHz
HO-68 01 Nov 21:42:47 21:48:32 27° 255° (WSW) 21:54:18 435.675 MHz FM
ZACube-1 01 Nov 21:51:22 21:55:59 74° 78° (ENE) 22:00:32 437.345 MHz
Oscar 11 01 Nov 22:15:44 22:18:34 17° 258° (WSW) 22:21:23 145.825 FM, Beacon 2401.500 USB
FUNcube-1 01 Nov 22:34:30 22:38:27 29° 258° (WSW) 22:42:23 145.950 - 145.970 MHz USB
PANSAT 01 Nov 22:35:07 22:38:57 70° 330° (NNW) 22:42:48 not established
UOSAT-12 01 Nov 22:46:21 22:50:41 44° 248° (WSW) 22:54:57 437.025 FM, 437.400 FM
PCSat 01 Nov 22:50:43 22:52:52 12° 110° (ESE) 22:55:00 145.825 MHz
Sapphire 02 Nov 00:09:09 00:14:33 84° 289° (WNW) 00:19:56 437.095 MHz 1200 baud AX-25 AFSK
PANSAT 02 Nov 00:18:01 00:19:09 11° 333° (NNW) 00:20:18 not established
Oscar 16 02 Nov 00:19:52 00:23:25 19° 103° (ESE) 00:26:59 437.025 USB, Beacon 2401.1428
PCSat 02 Nov 00:30:57 00:36:01 42° 289° (WNW) 00:41:05 145.825 MHz
AO-Echo 02 Nov 00:44:43 00:47:48 16° 102° (ESE) 00:50:50 ?
Uribyol 2 02 Nov 00:55:44 00:58:55 17° 103° (ESE) 01:02:07 436.500 FM
ITAMSAT 1 02 Nov 01:03:37 01:07:15 20° 103° (ESE) 01:10:53 435.822 SSB
JAS-1B 02 Nov 01:08:34 01:17:15 77° 104° (ESE) 01:27:03 435.800 - 435.900 CW/SSB
Oscar 19 02 Nov 01:10:07 01:15:14 81° 102° (ESE) 01:20:24 437.125 CW, 437.150 USB
Oscar 10/S400 02 Nov 01:33:10 02:46:20 18° 265° (W) 04:54:47 145.825 - 145.975 CW/USB, Beacon 145.810 USB
AO-27 02 Nov 01:50:01 01:55:12 77° 103° (ESE) 02:00:23 436.795 MHz FM
Oscar 16 02 Nov 01:58:19 02:02:29 26° 282° (WNW) 02:06:42 437.025 USB, Beacon 2401.1428
Gurwin Techsat 1B 02 Nov 02:13:28 02:18:42 64° 102° (ESE) 02:23:58 435.225 FM
TMSAT-1 02 Nov 02:19:02 02:24:08 50° 102° (ESE) 02:29:14 436.925 FM
AO-Echo 02 Nov 02:21:47 02:26:18 31° 283° (WNW) 02:30:44 ?
Uribyol 2 02 Nov 02:33:41 02:38:07 29° 283° (WNW) 02:42:33 436.500 FM
ITAMSAT 1 02 Nov 02:42:15 02:46:28 26° 283° (WNW) 02:50:41 435.822 SSB
Saudisat 1A 02 Nov 02:50:40 02:54:47 41° 112° (ESE) 02:58:52 436.775 MHz
JAS-1B 02 Nov 03:03:09 03:07:36 15° 282° (WNW) 03:12:20 435.800 - 435.900 CW/SSB
AO-7 02 Nov 03:19:38 03:27:25 44° 106° (ESE) 03:35:13 29.400 - 29.500 MHz
JAS-2 02 Nov 03:48:37 03:51:42 13° 101° (E) 03:54:40 435.800 - 435.900 CW/SSB, 435.910 FM
Uosat F 02 Nov 04:13:41 04:18:42 78° 283° (WNW) 04:23:43 435.120 FM
Hamsat 02 Nov 04:27:29 04:28:31 11° 102° (ESE) 04:29:32 145.90 MHz
OPAL 02 Nov 05:10:03 05:15:13 69° 256° (WSW) 05:20:18 ?
AO-7 02 Nov 05:13:26 05:19:49 25° 287° (WNW) 05:26:16 29.400 - 29.500 MHz
JAS-2 02 Nov 05:29:13 05:36:37 63° 284° (WNW) 05:43:19 435.800 - 435.900 CW/SSB, 435.910 FM
STRAND 1 02 Nov 05:32:25 05:35:21 15° 77° (ENE) 05:38:17 ?
Hamsat 02 Nov 06:00:26 06:04:09 29° 281° (W) 06:07:56 145.90 MHz
RS-15 02 Nov 06:15:24 06:26:40 55° 70° (ENE) 06:38:20 29.354 - 29.394 USB, Beacon 29.352 USB
ISS 02 Nov 06:40:05 06:43:01 30° 305° (NW) 06:45:57 145.800 FM
STRAND 1 02 Nov 07:09:46 07:14:16 31° 257° (WSW) 07:18:45 ?
SO-67 02 Nov 07:17:06 07:19:50 22° 281° (W) 07:22:35 435.3500 MHz FM
KITSAT 1 02 Nov 07:31:45 07:38:18 27° 111° (ESE) 07:44:47 435.175 FM
HO-68 02 Nov 07:46:50 07:52:43 28° 105° (ESE) 07:58:36 435.675 MHz FM
MaSat-1 02 Nov 07:56:46 07:59:06 58° 252° (WSW) 08:01:37 437.345 MHz
RS-15 02 Nov 08:29:29 08:38:46 27° 247° (WSW) 08:48:25 29.354 - 29.394 USB, Beacon 29.352 USB
SO-50 02 Nov 08:42:19 08:46:41 68° 292° (WNW) 08:51:04 436.795 FM
PANSAT 02 Nov 08:43:26 08:46:02 17° 29° (NNE) 08:48:37 not established
Oscar 11 02 Nov 08:48:06 08:51:41 26° 102° (ESE) 08:55:17 145.825 FM, Beacon 2401.500 USB
FUNcube-1 02 Nov 09:10:09 09:12:43 16° 102° (ESE) 09:15:19 145.950 - 145.970 MHz USB
UOSAT-12 02 Nov 09:18:15 09:20:46 15° 112° (ESE) 09:23:18 437.025 FM, 437.400 FM
KITSAT 1 02 Nov 09:26:02 09:33:21 38° 290° (WNW) 09:40:40 435.175 FM
HO-68 02 Nov 09:33:56 09:40:06 32° 285° (WNW) 09:46:17 435.675 MHz FM
